Weather History for KPTT - November, 2013

Change the Weather History Date:

Thursday, November 21, 2013

  Actual Average (KP28) Record (KP28)
Temperature  
Mean Temperature 36 °F 43 °F  
Max Temperature 51 °F 55 °F 78 °F (1955)
Min Temperature 21 °F 30 °F 7 °F (1898)
Degree Days  
Heating Degree Days 29 22  
Month to date heating degree days 367  
Since 1 July heating degree days 636  
Cooling Degree Days 0 0  
Month to date cooling degree days 0  
Year to date cooling degree days 1769  
Moisture  
Dew Point 30 °F    
Average Humidity 87    
Maximum Humidity 100    
Minimum Humidity 76    
Precipitation  
Precipitation 0.02 in 0.02 in 2.21 in (1899)
Month to date precipitation 0.73  
Year to date precipitation 26.02  
Snow  
Snow 0.00 in 0.00 in - ()
Month to date snowfall 0.0  
Since 1 July snowfall 0.0  
Since 1 September snowfall 0.0  
Snow Depth -    
Sea Level Pressure  
Sea Level Pressure 30.19 in    
Wind  
Wind Speed 16 mph (North)    
Max Wind Speed 30 mph    
Max Gust Speed 36 mph    
Visibility 8 miles    
Events Rain , Thunderstorm    
T = Trace of Precipitation, MM = Missing Value Source: NWS Daily Summary

Daily Weather History Graph

Daily Weather History Graph

Search for Another Location

Airport or City:

Trip Planner

Search our weather history database for the weather conditions in past years. The results will help you decide how hot, cold, wet, or windy it might be!

Date:

Astronomy

Nov. 21, 2013 Rise Set
Actual Time 7:21 AM CST 5:19 PM CST
Civil Twilight 6:53 AM CST 5:48 PM CST
Nautical Twilight 6:21 AM CST 6:20 PM CST
Astronomical Twilight 5:50 AM CST 6:51 PM CST
Moon 8:57 PM CST (11/21) 10:29 AM CST (11/21)
Length of Visible Light 10h 54m
Length of Day
9h 58m
Waning Gibbous, 85% of the Moon is Illuminated
Nov 21
Waning Gibbous
Nov 25
Last Quarter
Dec 2
New
Dec 9
First Quarter
Dec 17
Full

Hourly Weather History & Observations

Time (CST) Temp. Windchill Dew Point Humidity Pressure Visibility Wind Dir Wind Speed Gust Speed Precip Events Conditions
12:15 AM 51.8 °F - 44.6 °F 76% 29.91 in 10.0 mi SSE 8.1 mph - N/A Rain Light Rain
12:35 AM 50.0 °F - 46.4 °F 87% 29.92 in 10.0 mi South 4.6 mph - N/A Rain Light Rain
12:55 AM 50.0 °F - 46.4 °F 87% 29.89 in 10.0 mi ESE 5.8 mph - N/A Rain Rain
1:15 AM 50.0 °F - 46.4 °F 87% 29.90 in 10.0 mi SSE 6.9 mph - N/A   Overcast
1:35 AM 50.0 °F - 46.4 °F 87% 29.89 in 10.0 mi SE 4.6 mph - N/A Rain , Thunderstorm Light Thunderstorms and Rain
1:55 AM 50.0 °F - 46.4 °F 87% 29.89 in 10.0 mi SE 4.6 mph - N/A Rain Light Rain
2:15 AM 48.2 °F - 46.4 °F 93% 29.90 in 10.0 mi South 6.9 mph - N/A   Overcast
2:35 AM 50.0 °F - 44.6 °F 82% 29.92 in 10.0 mi South 11.5 mph - N/A   Overcast
2:55 AM 50.0 °F - 44.6 °F 82% 29.93 in 10.0 mi South 9.2 mph - N/A   Overcast
3:15 AM 50.0 °F - 46.4 °F 87% 29.91 in 7.0 mi Calm Calm - 0.02 in Rain Rain
3:35 AM 48.2 °F - 46.4 °F 93% 29.90 in 10.0 mi ESE 3.5 mph - 0.02 in   Overcast
3:55 AM 48.2 °F - 46.4 °F 93% 29.90 in 10.0 mi Calm Calm - 0.02 in   Overcast
4:15 AM 48.2 °F - 46.4 °F 93% 29.91 in 7.0 mi North 4.6 mph - N/A   Overcast
4:35 AM 48.2 °F - 46.4 °F 93% 29.93 in 7.0 mi Calm Calm - N/A   Overcast
4:55 AM 48.2 °F - 46.4 °F 93% 29.95 in 10.0 mi NNE 10.4 mph - N/A   Overcast
5:15 AM 50.0 °F - 46.4 °F 87% 29.96 in 10.0 mi NNE 13.8 mph - N/A   Overcast
5:35 AM 42.8 °F 33.1 °F 41.0 °F 93% 29.98 in 7.0 mi North 25.3 mph 29.9 mph N/A Rain Light Rain
5:55 AM 41.0 °F 31.1 °F 37.4 °F 87% 30.00 in 10.0 mi North 23.0 mph 31.1 mph N/A   Light Drizzle
6:15 AM 39.2 °F 28.7 °F 37.4 °F 93% 29.99 in 10.0 mi North 23.0 mph 31.1 mph N/A   Overcast
6:35 AM 37.4 °F 26.4 °F 35.6 °F 93% 30.01 in 10.0 mi NNE 23.0 mph 33.4 mph N/A   Overcast
6:55 AM 35.6 °F 23.4 °F 33.8 °F 93% 30.02 in 7.0 mi NNE 25.3 mph 31.1 mph N/A   Overcast
7:15 AM 35.6 °F 23.2 °F 32.0 °F 87% 30.03 in 10.0 mi NNE 26.5 mph 32.2 mph N/A   Overcast
7:35 AM 33.8 °F 21.9 °F 32.0 °F 93% 30.05 in 10.0 mi NNE 21.9 mph 32.2 mph N/A   Overcast
7:55 AM 33.8 °F 21.6 °F 32.0 °F 93% 30.07 in 7.0 mi NNE 23.0 mph 28.8 mph N/A   Overcast
8:15 AM 33.8 °F 22.8 °F 32.0 °F 93% 30.10 in 7.0 mi North 18.4 mph 28.8 mph N/A   Overcast
8:35 AM 32.0 °F 19.5 °F 30.2 °F 93% 30.10 in 10.0 mi NNE 21.9 mph 29.9 mph N/A   Overcast
8:55 AM 32.0 °F 19.5 °F 30.2 °F 93% 30.12 in 7.0 mi North 21.9 mph 28.8 mph N/A   Overcast
9:15 AM 32.0 °F 17.9 °F 30.2 °F 93% 30.13 in 7.0 mi North 28.8 mph 35.7 mph N/A   Overcast
9:35 AM 32.0 °F 19.5 °F 28.4 °F 87% 30.16 in 10.0 mi NNE 21.9 mph 31.1 mph N/A   Overcast
9:55 AM 32.0 °F 19.2 °F 28.4 °F 87% 30.16 in 10.0 mi North 23.0 mph 31.1 mph N/A   Overcast
10:15 AM 32.0 °F 18.9 °F 28.4 °F 87% 30.17 in 10.0 mi NNE 24.2 mph 31.1 mph N/A   Overcast
10:35 AM 32.0 °F 18.9 °F 26.6 °F 80% 30.19 in 10.0 mi NNE 24.2 mph 33.4 mph N/A   Overcast
10:55 AM 32.0 °F 18.9 °F 26.6 °F 80% 30.19 in 10.0 mi North 24.2 mph 32.2 mph N/A   Overcast
11:15 AM 32.0 °F 18.9 °F 26.6 °F 80% 30.19 in 10.0 mi NNE 24.2 mph 32.2 mph N/A   Overcast
11:35 AM 30.2 °F 17.1 °F 28.4 °F 93% 30.19 in 7.0 mi North 21.9 mph 29.9 mph N/A   Overcast
11:55 AM 30.2 °F 17.1 °F 26.6 °F 86% 30.20 in 7.0 mi North 21.9 mph 29.9 mph N/A   Overcast
12:15 PM 30.2 °F 16.2 °F 26.6 °F 86% 30.20 in 5.0 mi North 25.3 mph 32.2 mph N/A   Overcast
12:35 PM 28.4 °F 13.5 °F 26.6 °F 93% 30.21 in 5.0 mi North 26.5 mph - N/A   Overcast
12:55 PM 28.4 °F 14.7 °F 28.4 °F 100% 30.21 in 2.5 mi North 21.9 mph 29.9 mph N/A   Overcast
1:15 PM 28.4 °F 14.7 °F 26.6 °F 93% 30.21 in 2.0 mi North 21.9 mph 31.1 mph N/A   Overcast
1:35 PM 28.4 °F 14.4 °F 26.6 °F 93% 30.21 in 3.0 mi North 23.0 mph 31.1 mph N/A   Overcast
1:55 PM 28.4 °F 13.8 °F 26.6 °F 93% 30.22 in 4.0 mi North 25.3 mph 32.2 mph N/A   Overcast
2:15 PM 28.4 °F 14.4 °F 26.6 °F 93% 30.23 in 7.0 mi North 23.0 mph 29.9 mph N/A   Overcast
2:35 PM 28.4 °F 13.8 °F 26.6 °F 93% 30.24 in 5.0 mi North 25.3 mph 28.8 mph N/A   Overcast
2:55 PM 26.6 °F 11.7 °F 24.8 °F 93% 30.26 in 7.0 mi North 24.2 mph 33.4 mph N/A   Overcast
3:15 PM 26.6 °F 10.6 °F 24.8 °F 93% 30.26 in 5.0 mi North 28.8 mph 34.5 mph N/A   Overcast
3:35 PM 26.6 °F 12.4 °F 23.0 °F 86% 30.27 in 7.0 mi North 21.9 mph 32.2 mph N/A   Overcast
3:55 PM 26.6 °F 11.1 °F 23.0 °F 86% 30.30 in 7.0 mi North 26.5 mph 35.7 mph N/A   Overcast
4:15 PM 26.6 °F 11.1 °F 23.0 °F 86% 30.31 in 5.0 mi North 26.5 mph 34.5 mph N/A   Overcast
4:35 PM 26.6 °F 11.4 °F 21.2 °F 80% 30.31 in 7.0 mi North 25.3 mph 34.5 mph N/A   Overcast
4:55 PM 26.6 °F 11.1 °F 23.0 °F 86% 30.33 in 7.0 mi North 26.5 mph 33.4 mph N/A   Overcast
5:15 PM 26.6 °F 11.7 °F 23.0 °F 86% 30.34 in 10.0 mi North 24.2 mph 31.1 mph N/A   Overcast
5:35 PM 26.6 °F 12.4 °F 23.0 °F 86% 30.35 in 10.0 mi North 21.9 mph 27.6 mph N/A   Overcast
5:55 PM 26.6 °F 12.4 °F 23.0 °F 86% 30.35 in 10.0 mi North 21.9 mph 31.1 mph N/A   Overcast
6:15 PM 26.6 °F 11.4 °F 21.2 °F 80% 30.36 in 10.0 mi North 25.3 mph 32.2 mph N/A   Overcast
6:35 PM 26.6 °F 12.7 °F 21.2 °F 80% 30.38 in 10.0 mi North 20.7 mph 27.6 mph N/A   Overcast
6:55 PM 26.6 °F 11.1 °F 21.2 °F 80% 30.39 in 10.0 mi North 26.5 mph 29.9 mph N/A   Overcast
7:15 PM 24.8 °F 8.7 °F 19.4 °F 80% 30.40 in 10.0 mi North 26.5 mph 33.4 mph N/A   Overcast
7:35 PM 24.8 °F 10.3 °F 19.4 °F 80% 30.42 in 10.0 mi North 20.7 mph 31.1 mph N/A   Overcast
7:55 PM 24.8 °F 9.3 °F 19.4 °F 80% 30.43 in 10.0 mi North 24.2 mph 31.1 mph N/A   Overcast
8:15 PM 24.8 °F 10.0 °F 19.4 °F 80% 30.43 in 10.0 mi North 21.9 mph 31.1 mph N/A   Overcast
8:35 PM 24.8 °F 9.3 °F 19.4 °F 80% 30.44 in 10.0 mi North 24.2 mph 34.5 mph N/A   Overcast
8:55 PM 23.0 °F 6.6 °F 19.4 °F 86% 30.44 in 10.0 mi North 25.3 mph 33.4 mph N/A   Overcast
9:15 PM 23.0 °F 7.2 °F 19.4 °F 86% 30.45 in 10.0 mi North 23.0 mph 35.7 mph N/A   Overcast
9:35 PM 23.0 °F 7.2 °F 19.4 °F 86% 30.47 in 10.0 mi North 23.0 mph 35.7 mph N/A   Overcast
9:55 PM 23.0 °F 6.9 °F 19.4 °F 86% 30.48 in 10.0 mi North 24.2 mph 31.1 mph N/A   Overcast
10:15 PM 23.0 °F 6.0 °F 19.4 °F 86% 30.48 in 10.0 mi North 27.6 mph 33.4 mph N/A   Overcast
10:35 PM 23.0 °F 6.6 °F 17.6 °F 80% 30.49 in 10.0 mi North 25.3 mph 32.2 mph N/A   Overcast
10:55 PM 23.0 °F 6.3 °F 19.4 °F 86% 30.51 in 10.0 mi North 26.5 mph 32.2 mph N/A   Overcast
11:15 PM 21.2 °F 5.2 °F 17.6 °F 86% 30.52 in 10.0 mi North 21.9 mph 32.2 mph N/A   Overcast
11:35 PM 23.0 °F 7.2 °F 17.6 °F 80% 30.53 in 10.0 mi North 23.0 mph 29.9 mph N/A   Overcast
11:55 PM 21.2 °F 3.0 °F 17.6 °F 86% 30.53 in 10.0 mi North 29.9 mph 35.7 mph N/A   Overcast